Regional Weather Roundup
Issued by NWS

Home | Current Version | Previous Version | Graphics & Text | Print | Product List | Glossary Off
Versions: 1 2 3 4 5 6 7 8 9 10 11 12 13 14 15 16 17 18 19 20 21 22 23 24 25 26 27 28 29 30 31 32 33 34 35 36 37 38 39 40 41 42 43 44 45 46 47 48 49 50

000
ASUS43 KDMX 181501
RWRIA

WEATHER ROUNDUP FOR IOWA
NATIONAL WEATHER SERVICE DES MOINES IA
900 AM CST SAT NOV 18 2017

NOTE: "FAIR" INDICATES FEW OR NO CLOUDS BELOW 12,000 FEET WITH NO
SIGNIFICANT WEATHER AND/OR OBSTRUCTIONS TO VISIBILITY.

* - THESE STATIONS ARE NOT NWS STATIONS...THUS NOT UNDER NWS
QUALITY CONTROL.  THEY ALSO DO NOT REPORT WEATHER SUCH
AS PRECIPITATION OR FOG.

IAZ001>003-012>014-020>022-031>034-043>046-181600-
   NORTHWEST IOWA

CITY           SKY/WX    TMP DP  RH WIND       PRES   REMARKS
CARROLL *      CLOUDY    34  32  93 NW23G30   29.82R WCI  22
CHEROKEE *     MOSUNNY   32  27  80 NW13G18   29.88R WCI  23
DENISON *      MOSUNNY   34  30  86 N13G18    29.87R WCI  25
LE MARS *      MOSUNNY   34  28  80 NW9       29.91S WCI  26
ORANGE CITY *  MOSUNNY   34  28  80 NW9       29.89R WCI  26
SHELDON *      PTSUNNY   30  23  74 NW16      29.87R WCI  19
SIOUX CITY     CLOUDY    35  27  72 NW17      29.92R WCI  25
SPENCER        MOSUNNY   32  22  66 NW18      29.85R WCI  20
STORM LAKE *   SUNNY     32  27  80 NW15      29.84R WCI  22
$$

IAZ055>058-069>071-079>083-090>094-181600-
   SOUTHWEST IOWA

CITY           SKY/WX    TMP DP  RH WIND       PRES   REMARKS
ATLANTIC *     PTSUNNY   36  34  93 N18G29    29.83R WCI  25
AUDUBON *      CLOUDY    36  30  80 NW18G25   29.83R WCI  25
CLARINDA *     CLOUDY    39  37  93 N17G32    29.84R WCI  30
COUNCIL BLFS * CLOUDY    36  34  93 N18G26    29.87R WCI  25
CRESTON *      CLOUDY    37  36  93 NW25G35   29.77R WCI  26
HARLAN  *      PTSUNNY   36  36 100 N21G26    29.87R WCI  24
LAMONI         CLOUDY    39  38  96 NW15      29.73R WCI  31
RED OAK *      CLOUDY    37  34  87 N17G26    29.84R WCI  28
SHENANDOAH *   CLOUDY    39  36  87 NW16G26   29.85R WCI  30
$$

IAZ047>049-059>061-072>074-084-181600-
   CENTRAL IOWA

CITY           SKY/WX    TMP DP  RH WIND       PRES   REMARKS
AMES           CLOUDY    37  37 100 N25G38    29.73R WCI  25
ANKENY *       CLOUDY    37  36  93 N21G31    29.73R WCI  27
BOONE *        CLOUDY    36  34  93 N24G31    29.75R FOG     WCI  24
CHARITON *     CLOUDY    39  37  93 NW21G29   29.68R FOG     WCI  29
DES MOINES     CLOUDY    38  35  89 NW16G25   29.73R WCI  29
GRINNELL*      CLOUDY    37  36  94 N21       29.66R FOG     WCI  27
KNOXVILLE *    CLOUDY    39  37  93 N18G25    29.67R FOG     WCI  30
MARSHALLTOWN   CLOUDY    37  36  96 N22G28    29.68R FOG     WCI  26
NEWTON *       CLOUDY    37  37 100 N23       29.68R FOG     WCI  26
PELLA *        CLOUDY    38  37  94 N13G22    29.69R FOG     WCI  31
PERRY *        CLOUDY    36  35  94 NW20      29.79R WCI  25
$$

IAZ004>006-015-016-023>025-035-036-181600-
   NORTH CENTRAL IOWA

CITY           SKY/WX    TMP DP  RH WIND       PRES   REMARKS
ALGONA *       MOSUNNY   32  30  93 NW16G25   29.80R WCI  21
CLARION *      CLOUDY    32  32 100 N23       29.76R WCI  19
ESTHERVILLE    MOSUNNY   28  24  85 NW13      29.83R WCI  17
FORT DODGE *   CLOUDY    33  30  88 N14G22    29.79R WCI  23
MASON CITY     CLOUDY    34  31  88 NW23      29.75S WCI  22
FOREST CITY *  CLOUDY    32  32 100 NW20      29.77R WCI  20
WEBSTER CITY * CLOUDY    34  32  93 N24G33    29.74R WCI  21
IOWA FALLS *   CLOUDY    37  35  89 N24G30    29.71R WCI  26
$$

IAZ007>011-017>019-026>030-037>042-050>054-066-181600-
   NORTHEAST IOWA

CITY           SKY/WX    TMP DP  RH WIND       PRES   REMARKS
CEDAR RAPIDS   CLOUDY    38  37  97 N18       29.60S WCI  28
CHARLES CITY * CLOUDY    36  36 100 N21G29    29.70S WCI  24
CLINTON *      LGT RAIN  38  36  92 N22G29    29.55R WCI  27
DECORAH *      CLOUDY    36  34  93 N16G25    29.65F FOG     WCI  26
DUBUQUE        MIX PCPN  36  34  92 N16       29.59R WCI  26
MONTICELLO *   PTSUNNY   37  36  93 N13G22    29.60R WCI  29
OELWEIN *      CLOUDY    37  37 100 N21       29.65S WCI  27
WATERLOO       CLOUDY    36  34  92 N18G24    29.65F FOG     WCI  26
$$

IAZ064-065-067-068-078-181600-
   EAST CENTRAL IOWA

CITY           SKY/WX    TMP DP  RH WIND       PRES   REMARKS
DAVENPORT      LGT RAIN  38  36  92 N22G29    29.56S WCI  27
IOWA CITY      LGT RAIN  41  37  86 N15G26    29.62R
MT. PLEASANT * MIX PCPN  39  39  99 N18G25    29.56R WCI  29
MUSCATINE *    LGT RAIN  41  37  87 N17       29.58R
QUAD CITIES    LGT RAIN  40  36  86 N18G25    29.52F WCI  31
$$

IAZ062-063-075>077-085>089-095>099-181600-
   SOUTHEAST IOWA

CITY           SKY/WX    TMP DP  RH WIND       PRES   REMARKS
BURLINGTON     LGT RAIN  41  39  93 N20       29.56R
FAIRFIELD *    CLOUDY    39  37  93 N21G32    29.59R FOG     WCI  29
FORT MADISON * LGT RAIN  39  39 100 N21       29.51F WCI  29
KEOKUK *       CLOUDY    41  39  93 NW10G25   29.56R
OSKALOOSA *    LGT RAIN  38  37  95 N18G24    29.65R WCI  28
OTTUMWA        LGT RAIN  39  37  92 N21G29    29.64R WCI  29
WASHINGTON *   MIX PCPN  39  39 100 N23G30    29.59S WCI  29
$$

ABBREVIATIONS USED IN REMARKS
   TC - TEMPERATURES IN CELSIUS
  WCI - WIND CHILL INDEX
   HX - HEAT INDEX
  VSB - VISIBILITY
$$




USA.gov is the U.S. government's official web portal to all federal, state and local government web resources and services.